Terminal Aerodrome Forecast
Issued by NWS Sioux Falls, SD

Home | Current Version | Previous Version | Text Only | Print | Product List | Glossary On
Versions: 1 2 3 4 5 6 7 8 9 10 11 12 13 14 15 16 17 18 19 20 21 22
508
FTUS43 KFSD 011720
TAFFSD
TAF
KFSD 011720Z 0118/0218 31015G25KT P6SM SCT050
     FM011900 31015G25KT 2SM -SHSN OVC025
      TEMPO 0119/0120 1SM -SN OVC015
     FM012000 31017G26KT P6SM OVC015
     FM020000 30006KT P6SM SCT035
     FM020600 16004KT P6SM OVC070
     FM021000 14006KT 2SM -SN OVC025
      TEMPO 0211/0213 1 1/2SM -SN OVC010
     FM021400 32012G18KT P6SM OVC015=

USA.gov is the U.S. government's official web portal to all federal, state and local government web resources and services.